map of LFSO home
Great Circle Mapper logo
LFSO - Airport
Location
City:  Nancy, France
Name:Ochey
ICAO:LFSO

Details
Type:Airport (Aerodrome, Airfield)
Use:Military
Latitude:4834'59"N (48.583186)
Longitude:557'16"E (5.954525)
Elevation:1106 ft (337 m)
Variation:1.1E (WMM2010 magnetic declination)
Runways:1
Longest:7874 × 148 ft (2400 × 45 m)

Time
Time Zone:UTC+1 (DST+2)
Local Time:

Weather
METAR:LFSO 252330Z AUTO 09006KT 2700 BR BKN005 06/06 Q1016
TAF:LFSO 252000Z 2521/2621 08003KT 3000 BR OVC005
TEMPO 2521/2602 2000 -DZ OVC002
BECMG 2601/2603 4000 -RA BKN010 OVC025
BECMG 2605/2607 7000 NSW BKN015
TEMPO 2609/2621 4000 -DZRA BKN008 OVC015

Related Locations
Nearby:
Farthest:CHT: 12082 mi / 19443 km
Waitangi [Tuuta], Chatham Islands, NZ

Find:

   beyond  
but within

Other Information
Maps:
NOTAMs:
Links:
Sources:

  
flag of France   

Sectional Chart

Flight Planning
at skyvector.com

Satellite Image

Google Maps Satellite View

 

Copyright © 2004-2014 Karl L. Swartz. All rights reserved.
The Great Circle Mapper name and logo are trademarks of the Great Circle Mapper.
All other trademarks mentioned herein belong to their respective owners.
Please see credits for attibutions and further copyright information.

  Follow gcmap on Facebook Follow gcmap on Twitter

hCard Microformat

Geo Microformat